默认 日期 大小 文件数 浏览量 最新下载 xml
da.vinci磁力链接相关资源由用户搜索指令自动获取,结果来源于网络,本站不存储任何资料,亦不承担任何责任,请于24小时内删除,搜索到1545个磁力,用时2ms。
    {"README.txt": 338, "tinyiso.nfo": 4068, "IGG-GAMES.COM.url": 196, "PCGAMESTORRENTS.COM.url": 202, "tn-thehouseofdavinci2.iso": 3748341760, "OneHack.us Premium Cracked Accounts-Tutorials-Guides-Articles Community Based Forum.url": 377}
创建时间: 2022-01-11 08:17:05 大小:3.49 GB 文件数量:6 热度:4 最近下载:2025-01-05 14:30:07
    {"The.House.Of.Da.Vinci.2.Build.6381373.part1.rar": 1073741824, "The.House.Of.Da.Vinci.2.Build.6381373.part2.rar": 1073741824, "The.House.Of.Da.Vinci.2.Build.6381373.part3.rar": 1013675713}
创建时间: 2022-01-13 12:46:00 大小:2.94 GB 文件数量:3 热度:5 最近下载:2025-01-20 14:31:05
    {"newtgo.html": 348, "Private.Black.Label.Da.Vinci.CD1-NtGO.avi": 717238272, "Private.Black.Label.Da.Vinci.CD2-NtGO.avi": 719841280}
创建时间: 2022-01-14 13:36:29 大小:1.34 GB 文件数量:3 热度:13 最近下载:2025-01-07 18:47:09
    {"OST": {"MP3": {"cover.jpg": 603935, "02. Intro.mp3": 6318150, "10. Finale.mp3": 4631802, "04. Balista.mp3": 7798647, "07. Astrolab.mp3": 8058566, "01. Main Menu.mp3": 7016815, "05. Oculta Atriis.mp3": 8229078, "08. Tempus machina.mp3": 7595918, "06. ...
创建时间: 2022-01-14 14:38:55 大小:1.51 GB 文件数量:25 热度:5 最近下载:2025-01-07 18:47:05
    {"OST": {"MP3": {"cover.jpg": 603935, "02. Intro.mp3": 6318150, "10. Finale.mp3": 4631802, "04. Balista.mp3": 7798647, "07. Astrolab.mp3": 8058566, "01. Main Menu.mp3": 7016815, "05. Oculta Atriis.mp3": 8229078, "08. Tempus machina.mp3": 7595918, "06. ...
创建时间: 2022-01-15 12:50:59 大小:1.52 GB 文件数量:49 热度:6 最近下载:2025-01-21 02:57:12
    {"01.png": 88039, "02.png": 3536, "03.png": 326266, "04.png": 481409, "05.png": 429677, "06.png": 390256, "07.png": 423569, "08.png": 635305, "09.png": 349834, "10.png": 330641, "11.png": 663332, "12.png": 560768, "13.png": 365418, "14.png": 371692, "15. ...
创建时间: 2022-01-17 07:36:16 大小:12.4 MB 文件数量:36 热度:3 最近下载:2025-01-03 19:23:02
    {"OST": {"MP3": {"cover.jpg": 805225, "09. Finale.mp3": 4104657, "02. Trapped.mp3": 9394975, "01. Main Menu.mp3": 9751286, "07. Out of Sight.mp3": 12681179, "03. New Beginning.mp3": 8341718, "04. Sailor_s Gift.mp3": 7263384, "06. Monastic Secrets.mp3": ...
创建时间: 2022-01-18 11:35:39 大小:1.5 GB 文件数量:21 热度:5 最近下载:2025-02-24 00:48:03
    {"RARBG.txt": 31, "the_house_of_da_vinci_soundtrack_mp3.zip": 70463202, "the_house_of_da_vinci_soundtrack_wav.zip": 190429584, "setup_the_house_of_da_vinci_1.0.3_(64bit)_(52072).exe": 821048, "setup_the_house_of_da_vinci_1.0.3_(64bit)_(52072)-1.bin": ...
创建时间: 2022-01-19 15:43:53 大小:1.79 GB 文件数量:5 热度:5 最近下载:2025-01-07 00:49:04
    {"1.png": 1798084, "2.png": 1746287, "3.png": 1744031, "4.png": 1688953, "5.png": 1656498, "6.png": 1535899, "7.png": 1483888, "8.png": 1475850, "9.png": 1420677, "10.png": 1386048, "11.png": 3441458, "12.png": 3463668, "13.png": 3522700, "14.png": 3506903 ...
创建时间: 2022-01-27 23:11:05 大小:147.83 MB 文件数量:42 热度:7 最近下载:2025-05-15 08:53:01
    {"1.png": 1888452, "2.png": 1639626, "3.png": 3988326, "4.png": 3873007, "5.png": 1080274, "6.png": 4314005, "7.png": 4281728, "8.png": 3704056, "9.png": 3709606, "10.png": 3952832, "11.png": 3907525, "12.png": 4075580, "13.png": 3708126, "14.png": 6115139 ...
创建时间: 2022-01-29 12:47:42 大小:104.65 MB 文件数量:24 热度:4 最近下载:2025-01-03 02:44:04
    {"~Get Your Files Here !": {"Bonus Resources.txt": 386, "The.Da.Vinci.Globe.pdf": 33772427}, "Get Bonus Downloads Here.url": 180}
创建时间: 2022-02-01 06:09:01 大小:32.21 MB 文件数量:3 热度:5 最近下载:2025-01-02 08:06:07
    ... Da Vinci's Cat.jpg": 121673, "Da Vinci's Cat - 039 - Credits.mp3": 465260, "Da Vinci ... 22 Tidbits.mp3": 4373449, "Da Vinci's Cat - 014 - ... Information.mp3": 4903703, "Da Vinci's Cat - 010 - ... Rumors of da Vinci and Thieves.mp3": 5997516, "Da Vinci's Cat ...
创建时间: 2022-02-14 15:34:28 大小:168.29 MB 文件数量:40 热度:5 最近下载:2025-01-19 06:30:07
    ... ].mkv": 4558395344, "1 Kod da Vinci - The Da Vinci Code 2006 [1080p.BluRay.H264 ...
创建时间: 2022-02-20 14:39:15 大小:15.2 GB 文件数量:8 热度:7 最近下载:2025-03-23 19:33:03
    {"The Da Vinci Code [Extended Cut] ... tRuAVC.mkv": 7382272653, "The Da Vinci Code [Extended Cut] 2006 ... tRuAVC_Gavrilov.ac3": 586740224, "The Da Vinci Code [Extended Cut] 2006 x264 ... tRuAVC_Kinomaniya.ac3": 502860288, "The Da Vinci Code [Extended Cut] 2006 x264 ...
创建时间: 2022-03-12 11:28:47 大小:8.44 GB 文件数量:4 热度:4 最近下载:2025-09-28 12:06:02
    ... ": 2003529, "The Da Vinci Code (2006) 2.png": 1557051, "The Da Vinci Code (2006 ... .1 + nickarad.mp4": 3781869778, "The Da Vinci Code (2006) 1080p BluRay H264 ... .1 + nickarad.srt": 143496, "The Da Vinci Code (2006) 1080p BluRay H264 ...
创建时间: 2022-03-14 08:41:33 大小:3.53 GB 文件数量:5 热度:7 最近下载:2025-09-29 18:51:01
    ... , "leonardo-da-vinci-biography_meta.xml": 1035, "leonardo-da-vinci-biography_meta.sqlite": 12288, "Leonardo da Vinci-The ... Biography Channel.mp4": 274802490, "Leonardo da Vinci ...
创建时间: 2022-03-15 22:18:50 大小:1.71 GB 文件数量:8 热度:5 最近下载:2025-01-29 21:53:02
    ... .png": 40276699, "front.png": 44942949, "Da Vivi disc.png": 15610199, "Katrin ... Vesna disc.png": 14889697, "da vici matrix disc.png": 1370978 ... }, "Dj Da Vinci - TonkeeMuzik.cue": 1473, "Dj Da Vinci - TonkeeMuzik.log": 7406, "Dj Da Vinci - TonkeeMuzik ...
创建时间: 2022-03-19 12:47:03 大小:981.86 MB 文件数量:12 热度:3 最近下载:2025-01-27 16:24:04
    {"VIDEO_TS.BUP": 6144, "VIDEO_TS.IFO": 6144, "VTS_01_0.BUP": 88064, "VTS_01_0.IFO": 88064, "VTS_01_1.VOB": 1073739776, "VTS_01_2.VOB": 1073739776, "VTS_01_3.VOB": 1073739776, "VTS_01_4.VOB": 1073739776, "VTS_01_5.VOB": 73285632}
创建时间: 2022-04-02 17:56:15 大小:4.07 GB 文件数量:9 热度:3 最近下载:2025-01-27 07:07:04
    {"Andrew Dewar - Leonardo Da Vinci's Flying Machines eBook.azw3": 21287769, "Andrew Dewar - Leonardo Da Vinci's Flying Machines eBook.epub": 33445999, "Andrew Dewar - Leonardo Da Vinci's Flying Machines eBook.mobi": 7555752}
创建时间: 2022-04-12 07:49:43 大小:59.4 MB 文件数量:3 热度:4 最近下载:2025-02-06 01:56:06
    ... ": 139, "Private Black Label 43 Da Vinci XXX [DVDRIP][All Sex][www ... ": 717238272, "Private Black Label 43 Da Vinci XXX [DVDRIP][All Sex][www ...
创建时间: 2022-04-19 19:37:04 大小:1.34 GB 文件数量:5 热度:9 最近下载:2025-07-25 10:14:01